Weather History for Idaho Falls, ID

Change the Weather History Date:

Monday, November 18, 2013

  Actual Average Record
Temperature  
Mean Temperature 35 °F 31 °F  
Max Temperature 48 °F 41 °F 60 °F (2008)
Min Temperature 22 °F 21 °F -3 °F (2014)
Degree Days  
Heating Degree Days 30 34  
Month to date heating degree days 491 533  
Since 1 July heating degree days 1318 1455  
Cooling Degree Days 0 0  
Month to date cooling degree days 0 0  
Year to date cooling degree days 510 264  
Moisture  
Dew Point 26 °F    
Average Humidity 69    
Maximum Humidity 88    
Minimum Humidity 49    
Precipitation  
Precipitation 0.00 in 0.03 in 0.40 in (1973)
Month to date precipitation 0.07 0.50  
Year to date precipitation 5.95 9.15  
Sea Level Pressure  
Sea Level Pressure 30.11 in    
Wind  
Wind Speed 4 mph (North)    
Max Wind Speed 13 mph    
Max Gust Speed 16 mph    
Visibility 10 miles    
Events      
T = Trace of Precipitation, MM = Missing Value Source: NWS Daily Summary

Daily Weather History Graph

Daily Weather History Graph

Search for Another Location

Airport:

Trip Planner

Search our weather history database for the weather conditions in past years. The results will help you decide how hot, cold, wet, or windy it might be!

Date:

Astronomy

Nov. 18, 2013 Rise Set
Actual Time 7:26 AM MST 5:00 PM MST
Civil Twilight 6:55 AM MST 5:31 PM MST
Nautical Twilight 6:20 AM MST 6:06 PM MST
Astronomical Twilight 5:46 AM MST 6:40 PM MST
Moon 6:05 PM MST (11/18) 8:18 AM MST (11/18)
Length of Visible Light 10h 36m
Length of Day
9h 34m
Full, 99% of the Moon is Illuminated
Nov 18
Full
Nov 25
Last Quarter
Dec 2
New
Dec 9
First Quarter
Dec 17
Full

Hourly Weather History & Observations

Time (MST) Temp. Windchill Dew Point Humidity Pressure Visibility Wind Dir Wind Speed Gust Speed Precip Events Conditions
12:53 AM 32.0 °F 24.8 °F 25.0 °F 75% 30.16 in 10.0 mi SW 8.1 mph - N/A   Clear
1:53 AM 34.0 °F 26.6 °F 25.0 °F 70% 30.15 in 10.0 mi SW 9.2 mph - N/A   Clear
2:53 AM 30.0 °F 23.2 °F 23.0 °F 75% 30.17 in 10.0 mi WSW 6.9 mph - N/A   Clear
3:53 AM 30.0 °F 24.1 °F 23.0 °F 75% 30.17 in 10.0 mi WSW 5.8 mph - N/A   Clear
4:53 AM 26.1 °F 20.5 °F 21.9 °F 84% 30.21 in 10.0 mi NNE 4.6 mph - N/A   Clear
5:53 AM 25.0 °F 19.3 °F 21.0 °F 85% 30.22 in 10.0 mi North 4.6 mph - N/A   Clear
6:53 AM 23.0 °F 18.4 °F 19.0 °F 85% 30.22 in 10.0 mi North 3.5 mph - N/A   Clear
7:53 AM 24.1 °F 18.2 °F 19.9 °F 84% 30.22 in 10.0 mi North 4.6 mph - N/A   Scattered Clouds
8:53 AM 27.0 °F 21.6 °F 21.0 °F 78% 30.22 in 10.0 mi North 4.6 mph - N/A   Scattered Clouds
9:53 AM 30.9 °F 24.3 °F 24.1 °F 76% 30.21 in 10.0 mi North 6.9 mph - N/A   Scattered Clouds
10:53 AM 37.0 °F 34.5 °F 26.1 °F 65% 30.19 in 10.0 mi Variable 3.5 mph - N/A   Scattered Clouds
11:53 AM 42.1 °F 40.2 °F 27.0 °F 55% 30.16 in 10.0 mi NE 3.5 mph - N/A   Scattered Clouds
12:53 PM 45.0 °F - 27.0 °F 49% 30.12 in 10.0 mi Calm Calm - N/A   Scattered Clouds
1:53 PM 46.9 °F - 28.0 °F 48% 30.07 in 10.0 mi Calm Calm - N/A   Scattered Clouds
2:53 PM 48.0 °F - 30.0 °F 50% 30.06 in 10.0 mi Calm Calm - N/A   Mostly Cloudy
3:53 PM 45.0 °F 42.6 °F 30.9 °F 58% 30.05 in 10.0 mi Variable 4.6 mph - N/A   Mostly Cloudy
4:53 PM 43.0 °F 41.3 °F 30.9 °F 62% 30.05 in 10.0 mi ESE 3.5 mph - N/A   Mostly Cloudy
5:53 PM 37.9 °F 35.5 °F 30.0 °F 73% 30.06 in 10.0 mi NNW 3.5 mph - N/A   Clear
6:53 PM 36.0 °F 32.1 °F 28.0 °F 73% 30.06 in 10.0 mi North 4.6 mph - N/A   Clear
7:53 PM 34.0 °F - 27.0 °F 75% 30.03 in 10.0 mi Calm Calm - N/A   Clear
8:53 PM 32.0 °F - 27.0 °F 82% 30.01 in 10.0 mi Calm Calm - N/A   Clear
9:53 PM 32.0 °F 26.4 °F 27.0 °F 82% 29.99 in 10.0 mi North 5.8 mph - N/A   Clear
10:53 PM 33.1 °F 30.0 °F 27.0 °F 78% 29.96 in 10.0 mi ENE 3.5 mph - N/A   Clear
11:53 PM 33.1 °F - 27.0 °F 78% 29.93 in 10.0 mi Calm Calm - N/A   Clear